Terminal Aerodrome Forecast
Issued by NWS Flagstaff, AZ

Home | Current Version | Previous Version | Text Only | Print | Product List | Glossary On
Versions: 1 2 3 4 5 6 7 8 9 10 11 12 13 14 15 16 17
000
FTUS45 KFGZ 290529
TAFINW
TAF
KINW 290529Z 2906/3006 23004KT P6SM FEW100
     FM291200 11004KT P6SM SKC
     FM291800 16006KT P6SM SCT090 PROB30 2920/2924 VRB20G30KT 5SM
      -TSRA BKN090CB
     FM300200 25006KT P6SM FEW100=

USA.gov is the U.S. government's official web portal to all federal, state and local government web resources and services.